Flag for U.S.A. Weather past 2 weeks in Tucson, Arizona, U.S.A.

Now
73 °F

Sunny.


Feels Like: 75 °F
Forecast: 47 / 77 °F
Wind: 18 mph from West

Location: Davis-Monthan Air Force Base

Current Time: Feb 27, 2015 at 4:11:32 PM

Latest Report: Feb 27, 2015 at 2:58 PM


Visibility: 10 mi

Pressure: 29.62 "Hg

Humidity: 16%

Dew point: 25 °F

Location of TucsonLocation

Historic Weather in Tucson — Graph

°F

Tucson temperature yesterday

Maximum temperature yesterday: 72 °F (at 2:58 PM)
Minimum temperature yesterday: 42 °F (at 4:58 AM)
Average temperature yesterday: 56 °F

Past Weeks' High & Low Weather Summary

 TemperatureHumidityPressure
High78 °F (Feb 14, 2:58 PM)100% (Feb 16, 4:58 AM)30.17 "Hg (Feb 16, 4:58 AM)
Low38 °F (Feb 25, 6:58 AM)10% (Feb 19, 2:58 PM)29.62 "Hg (Feb 27, 2:58 PM)
Average60 °F46%29.94 "Hg
* Reported Feb 12 2:58 PM — Feb 27 2:58 PM, Tucson, Weather by CustomWeather, © 2015

Note: Actual official high and low records may vary slightly from our data, if they occured in-between our weather recording intervals... More about our weather records

Advertising

Tucson weather history for previous 24 hours

 ConditionsComfort  
Time TempWeatherWind HumidityBarometerVisibility
2:58 PM
Fri, Feb 27
73 °FSunny.18 mph16%29.62 "Hg10 mi
1:59 PM72 °FSunny.14 mph17%29.72 "Hg10 mi
12:58 PM71 °FSunny.17 mph18%29.68 "Hg10 mi
11:58 AM69 °FSunny.12 mph23%29.72 "Hg10 mi
10:58 AM64 °FSunny.6 mph24%29.75 "Hg10 mi
9:58 AM61 °FSunny.2 mph25%29.75 "Hg10 mi
8:58 AM57 °FSunny.10 mph29%29.76 "Hg10 mi
7:58 AM49 °FSunny.9 mph42%29.77 "Hg10 mi
6:58 AM47 °FSunny.5 mph41%29.75 "Hg10 mi
5:58 AM46 °FClear.7 mph44%29.74 "Hg10 mi
4:58 AM45 °FClear.9 mph50%29.73 "Hg10 mi
3:58 AM45 °FClear.8 mph51%29.74 "Hg10 mi
2:58 AM48 °FClear.10 mph44%29.75 "Hg10 mi
1:58 AM47 °FClear.9 mph47%29.76 "Hg10 mi
12:58 AM47 °FClear.5 mph50%29.76 "Hg10 mi
11:58 PM
Thu, Feb 26
49 °FClear.10 mph47%29.77 "Hg10 mi
10:58 PM56 °FClear.7 mph33%29.75 "Hg10 mi
9:58 PM57 °FClear.6 mph29%29.75 "Hg10 mi
8:58 PM58 °FClear.8 mph28%29.76 "Hg10 mi
7:58 PM61 °FClear.5 mph27%29.75 "Hg10 mi
5:58 PM69 °FSunny.13 mph15%29.70 "Hg10 mi
4:58 PM71 °FSunny.13 mph15%29.72 "Hg10 mi
Weather by CustomWeather, © 2015

See weather overviewHow to use our weather pages